カタログに戻る

TJS-27A

運用中LEO
NORAD 100174·PAYLOAD·🇨🇳 China

打ち上げ Jul 30, 2026 から Taiyuan Satellite Launch Center

Loading…

次のパス (今後24時間)

TLE

最新Source: Space-Track

元期: Sep 14, 2026, 15:02 UTC

1 A0174U 26173A   26257.62679980 -.00000020  00000-0  12641-3 0  9990
2 A0174  64.7903 165.5564 0004873 248.2850 111.7661 13.28110797  6194

AllMySatでTJS-27Aをリアルタイム追跡

Download on the App Store